Regional Weather Roundup
Issued by NWS

Home | Current Version | Previous Version | Text Only | Print | Product List | Glossary On
Versions: 1 2 3 4 5 6 7 8 9 10 11 12 13 14 15 16 17 18 19 20 21 22 23 24 25 26 27 28 29 30 31 32 33 34 35 36 37 38 39 40 41 42 43 44 45 46 47 48 49 50
000
ASCA42 TJSJ 270310
RWRPR
PUERTO RICO/U.S. VIRGIN ISLANDS HOURLY WEATHER ROUNDUP
NATIONAL WEATHER SERVICE SAN JUAN PR
1100 PM AST MON JUN 26 2017

PRZ001>002-007>008-010-270400-
PUERTO RICO

CITY           SKY/WX    TMP DP  RH WIND       PRES   REMARKS
SAN JUAN LMM   PTCLDY    81  75  83 E8        30.06R
PONCE          CLEAR     81  73  78 E7        30.07
CEIBA          CLOUDY    81  77  89 NE6       30.07R
$$

VIZ001>002-270400-
U.S. VIRGIN ISLANDS

CITY           SKY/WX    TMP DP  RH WIND       PRES   REMARKS
CHARLOTTE AMA  CLEAR     84  75  74 E7        30.04R HX  92
CHRISTIANSTED  MOCLDY    81  73  78 NE7       30.04S
$$

HOURLY WEATHER ROUNDUP FOR THE NEWS MEDIA

CITY           SKY/WX    TMP DP  RH WIND       PRES   REMARKS
ORLANDO        TSTM      78  77  96 E7        30.04S
NEW YORK       CLEAR     69  61  75 SW8       30.00S
NEWARK         PTCLDY    71  48  43 SW10      29.98R
CHICAGO        PTCLDY    61  44  53 NW9       30.08R
HARTFORD       CLEAR     63  58  83 SW7       29.99S
BOSTON         MOCLDY    69  52  54 NW10      29.99R
DALLAS         CLOUDY    83  69  62 E7        30.02R
PHILADELPHIA   CLEAR     71  51  49 S6        29.99F
LOS ANGELES    CLEAR     71  62  73 W5        29.88S
WASHINGTON DC  CLOUDY    72  53  51 SW6       30.00R


USA.gov is the U.S. government's official web portal to all federal, state and local government web resources and services.